Location: Bacea
(45.9500°N, 22.6667°E)
Time: 11:10:01
(UTC+00:00)

CENTAUR R/B - Pass Details

Date: 16 October 2021
Orbit: 728 x 1459 km, 63.4° (Epoch: 26 November)

Event Time Altitude Azimuth Distance (km) Brightness Sun altitude
Rises 18:56:10 0° 310° (NW) 3,899 6.6 -34.0°
Reaches altitude 10° 18:59:22 10° 325° (NW) 3,066 5.7 -34.5°
Maximum altitude 19:05:13 24° 17° (NNE) 2,389 4.5 -35.4°
Enters shadow 19:06:07 23° 26° (NNE) 2,436 4.5 -35.5°
